星链-3572 (STARLINK-3572 )

导读 | 豆包AI

STARLINK-3572是由美国发射的SpaceX星链卫星,于2022年3月3日发射入轨,属于星链低轨互联网星座的组成部分。星链项目旨在构建全球卫星互联网,该卫星为偏远地区网络覆盖、全球网络接入提供支持,目前已在轨运行四年左右,是Starlink星座中提供全球宽带服务的重要节点之一。

基本信息
目录编号:
51879
目录名称:
STARLINK-3572
国际标识:
2022-022AD
轨道中心:
EARTH
卫星名称:
星链-3572
卫星全名:
星链-3572 (STARLINK-3572 )
卫星状态:
在轨 (已飞行1472 天)
发射日期:
2022-03-03 UTC
国别 :
美国 (US)
星等 :
--
轨道信息
数据来源 国际轨道数据
星历时间: 2026-03-14T06:53:50+0800
22小时前
查看轨道信息
半长轴: 6917.888km
偏心率: 0.0001318
轨道倾角: 53.218°
近地点辐角 82.277°
升交点赤经 339.978°
平近点角 277.837°
近地点: 538.839km
远地点: 540.663km
周期: 95.438分钟
每日圈数: 15.088378
详细信息
固有亮度:
5
最大亮度:
2.5
卫星平台:
Starlink v1.5
覆盖范围:
全球
运营商:
太空探索技术公司
运营商所在国:
美国
制造商(研发单位):
太空探索技术公司
制造商所在国:
美国
使用方式:
暂无
卫星简介
星链(Starlink)计划是由太空探索技术公司(SpaceX)提出的一个巨型低轨卫星互联网星座项目,计划在2019年至2024年间在太空搭建由约1.2万颗卫星组成的“星链”网络,其中1584颗将部署在地球上空550千米处的近地轨道,并从2020年开始工作。该卫星仍在工作。
2D轨道图
3D轨道图
轨道高度分析图
轨道倾角分析图
轨道综合分析图
查看轨道综合分析图